Location: *
(51.4660°N, 0.3360°W)
Time: 09:34:40
(UTC+00:00)

Okean 1 Rocket - Pass Details

Date: 19 September 2019
Orbit: 608 x 634 km, 82.5° (Epoch: 15 October)

Event Time Altitude Azimuth Distance (km) Brightness Sun altitude
Rises 19:14:21 0° 187° (S) 2,857 6.4 -11.1°
Reaches altitude 10° 19:16:33 10° 187° (S) 1,959 5.5 -11.4°
Maximum altitude 19:20:53 87° 102° (ESE) 620 3.0 -12.1°
Drops below altitude 10° 19:25:18 10° 11° (N) 1,986 5.8 -12.7°
Sets 19:27:32 0° 11° (NNE) 2,901 6.6 -13.1°
